| time (UTC) | temp F | wind direction | speed MPH | gust MPH | rain 1hr in | rain 24hr in | rain mn in | humidity % | barometer mb |
| 20260904223233 | 92 | 123 | 4.0 | 8.0 | 0.00 | 0.00 | 0.00 | 49 | 1016.1 |
| 20260904222234 | 93 | 187 | 3.0 | 7.0 | 0.00 | 0.00 | 0.00 | 49 | 1016.2 |
| 20260904221233 | 93 | 187 | 2.0 | 3.0 | 0.00 | 0.00 | 0.00 | 50 | 1016.1 |
| 20260904220233 | 93 | 138 | 4.0 | 8.0 | 0.00 | 0.00 | 0.00 | 50 | 1016.1 |
| 20260904215233 | 93 | 122 | 9.0 | 9.0 | 0.00 | 0.00 | 0.00 | 49 | 1016.1 |
| 20260904213233 | 93 | 85 | 1.0 | 10.0 | 0.00 | 0.00 | 0.00 | 49 | 1016.3 |
| 20260904212233 | 93 | 119 | 2.0 | 8.0 | 0.00 | 0.00 | 0.00 | 49 | 1016.3 |
| 20260904210233 | 94 | 179 | 4.0 | 8.0 | 0.00 | 0.00 | 0.00 | 47 | 1016.3 |
| 20260904205233 | 94 | 82 | 9.0 | 10.0 | 0.00 | 0.00 | 0.00 | 48 | 1016.4 |
| 20260904204233 | 93 | 103 | 2.0 | 8.0 | 0.00 | 0.00 | 0.00 | 50 | 1016.3 |
| 20260904202232 | 94 | 69 | 0.0 | 8.0 | 0.00 | 0.00 | 0.00 | 51 | 1016.7 |
| 20260904201232 | 93 | 138 | 3.0 | 11.0 | 0.00 | 0.00 | 0.00 | 52 | 1016.8 |
| 20260904195232 | 93 | 163 | 2.0 | 7.0 | 0.00 | 0.00 | 0.00 | 52 | 1017.1 |
| 20260904193233 | 94 | 111 | 8.0 | 13.0 | 0.00 | 0.00 | 0.00 | 52 | 1017.2 |
| 20260904192233 | 93 | 128 | 7.0 | 10.0 | 0.00 | 0.00 | 0.00 | 51 | 1017.5 |
| 20260904191232 | 93 | 59 | 8.0 | 9.0 | 0.00 | 0.00 | 0.00 | 52 | 1017.6 |
| 20260904190232 | 92 | 96 | 7.0 | 8.0 | 0.00 | 0.00 | 0.00 | 54 | 1017.7 |
| 20260904185232 | 92 | 92 | 6.0 | 6.0 | 0.00 | 0.00 | 0.00 | 55 | 1017.9 |
| 20260904184232 | 92 | 107 | 5.0 | 10.0 | 0.00 | 0.00 | 0.00 | 54 | 1018.2 |
| 20260904183232 | 93 | 86 | 4.0 | 10.0 | 0.00 | 0.00 | 0.00 | 54 | 1018.4 |
| 20260904182232 | 91 | 167 | 0.0 | 10.0 | 0.00 | 0.00 | 0.00 | 57 | 1018.6 |
| 20260904181232 | 91 | 73 | 4.0 | 10.0 | 0.00 | 0.00 | 0.00 | 58 | 1018.8 |
| 20260904180232 | 92 | 121 | 7.0 | 10.0 | 0.00 | 0.00 | 0.00 | 58 | 1018.8 |
| 20260904175231 | 91 | 103 | 2.0 | 8.0 | 0.00 | 0.00 | 0.00 | 57 | 1018.9 |
| 20260904174232 | 91 | 82 | 4.0 | 9.0 | 0.00 | 0.00 | 0.00 | 61 | 1019.0 |
| 20260904173232 | 91 | 92 | 4.0 | 8.0 | 0.00 | 0.00 | 0.00 | 60 | 1019.1 |
| 20260904172231 | 91 | 123 | 6.0 | 11.0 | 0.00 | 0.00 | 0.00 | 59 | 1019.2 |
| 20260904171232 | 90 | 38 | 4.0 | 11.0 | 0.00 | 0.00 | 0.00 | 59 | 1019.3 |
| 20260904170231 | 90 | 88 | 4.0 | 10.0 | 0.00 | 0.00 | 0.00 | 58 | 1019.2 |
| 20260904164231 | 89 | 131 | 8.0 | 10.0 | 0.00 | 0.00 | 0.00 | 63 | 1019.5 |
| 20260904163231 | 88 | 110 | 6.0 | 10.0 | 0.00 | 0.00 | 0.00 | 63 | 1019.6 |
| 20260904162231 | 88 | 96 | 10.0 | 10.0 | 0.00 | 0.00 | 0.00 | 63 | 1019.7 |
| 20260904155231 | 87 | 124 | 4.0 | 8.0 | 0.00 | 0.00 | 0.00 | 66 | 1020.2 |
| 20260904153231 | 86 | 241 | 1.0 | 3.0 | 0.00 | 0.00 | 0.00 | 70 | 1020.0 |
| 20260904151230 | 86 | 81 | 1.0 | 4.0 | 0.00 | 0.00 | 0.00 | 73 | 1020.0 |
| 20260904150231 | 86 | 50 | 3.0 | 3.0 | 0.00 | 0.00 | 0.00 | 74 | 1020.0 |
| 20260904145230 | 85 | 43 | 0.0 | 4.0 | 0.00 | 0.00 | 0.00 | 71 | 1020.0 |
| 20260904144231 | 84 | 66 | 4.0 | 4.0 | 0.00 | 0.00 | 0.00 | 74 | 1019.8 |
| 20260904143230 | 84 | 315 | 0.0 | 2.0 | 0.00 | 0.00 | 0.00 | 75 | 1019.9 |
| 20260904142230 | 83 | 114 | 1.0 | 3.0 | 0.00 | 0.00 | 0.00 | 78 | 1019.8 |
| 20260904141230 | 82 | 63 | 1.0 | 3.0 | 0.00 | 0.00 | 0.00 | 80 | 1019.8 |
| 20260904140230 | 81 | 248 | 0.0 | 2.0 | 0.00 | 0.00 | 0.00 | 80 | 1019.8 |
| 20260904135230 | 81 | 250 | 1.0 | 2.0 | 0.00 | 0.00 | 0.00 | 81 | 1019.7 |
| 20260904134230 | 81 | 184 | 3.0 | 4.0 | 0.00 | 0.00 | 0.00 | 82 | 1019.8 |
| 20260904133231 | 81 | 83 | 2.0 | 2.0 | 0.00 | 0.00 | 0.00 | 84 | 1019.7 |
| 20260904131230 | 79 | 78 | 2.0 | 3.0 | 0.00 | 0.00 | 0.00 | 86 | 1019.6 |
| 20260904130300 | 78 | 88 | 2.0 | 2.0 | 0.00 | 0.00 | 0.00 | 87 | 1019.5 |
| 20260904123229 | 76 | 58 | 1.0 | 1.0 | 0.00 | 0.00 | 0.00 | 89 | 1019.4 |
| 20260904122259 | 75 | 23 | 0.0 | 4.0 | 0.00 | 0.00 | 0.00 | 90 | 1019.4 |
| 20260904120229 | 72 | 248 | 0.0 | 0.0 | 0.00 | 0.00 | 0.00 | 93 | 1019.1 |
| 20260904115259 | 72 | 248 | 0.0 | 0.0 | 0.00 | 0.00 | 0.00 | 93 | 1019.3 |
| 20260904113259 | 71 | 248 | 0.0 | 0.0 | 0.00 | 0.00 | 0.00 | 93 | 1019.0 |
| 20260904112259 | 71 | 248 | 0.0 | 0.0 | 0.00 | 0.00 | 0.00 | 93 | 1019.1 |
| 20260904111229 | 70 | 248 | 0.0 | 0.0 | 0.00 | 0.00 | 0.00 | 93 | 1018.8 |
| 20260904110259 | 71 | 248 | 0.0 | 0.0 | 0.00 | 0.00 | 0.00 | 93 | 1018.9 |
| 20260904105259 | 71 | 248 | 0.0 | 0.0 | 0.00 | 0.00 | 0.00 | 93 | 1018.9 |
| 20260904104259 | 71 | 248 | 0.0 | 0.0 | 0.00 | 0.00 | 0.00 | 93 | 1018.9 |
| 20260904103229 | 71 | 248 | 0.0 | 0.0 | 0.00 | 0.00 | 0.00 | 93 | 1018.8 |
| 20260904101259 | 71 | 248 | 0.0 | 0.0 | 0.00 | 0.00 | 0.00 | 92 | 1018.9 |
| 20260904100258 | 72 | 248 | 0.0 | 0.0 | 0.00 | 0.00 | 0.00 | 92 | 1018.7 |
| 20260904095258 | 72 | 248 | 0.0 | 0.0 | 0.00 | 0.00 | 0.00 | 92 | 1018.8 |
| 20260904094229 | 72 | 248 | 0.0 | 0.0 | 0.00 | 0.00 | 0.00 | 92 | 1018.8 |
| 20260904093258 | 72 | 248 | 0.0 | 0.0 | 0.00 | 0.00 | 0.00 | 92 | 1018.7 |
| 20260904091258 | 72 | 248 | 0.0 | 0.0 | 0.00 | 0.00 | 0.00 | 91 | 1018.7 |
| 20260904090258 | 72 | 248 | 0.0 | 0.0 | 0.00 | 0.00 | 0.00 | 91 | 1018.7 |
| 20260904084258 | 73 | 248 | 0.0 | 0.0 | 0.00 | 0.00 | 0.00 | 90 | 1018.6 |
| 20260904083258 | 73 | 248 | 0.0 | 0.0 | 0.00 | 0.00 | 0.00 | 90 | 1018.7 |
| 20260904080258 | 73 | 248 | 0.0 | 0.0 | 0.00 | 0.00 | 0.00 | 89 | 1018.7 |
| 20260904075227 | 74 | 248 | 0.0 | 0.0 | 0.00 | 0.00 | 0.00 | 89 | 1018.6 |
| 20260904074257 | 74 | 248 | 0.0 | 0.0 | 0.00 | 0.00 | 0.00 | 88 | 1018.6 |
| 20260904073257 | 74 | 248 | 0.0 | 0.0 | 0.00 | 0.00 | 0.00 | 88 | 1018.6 |
| 20260904071257 | 74 | 248 | 0.0 | 0.0 | 0.00 | 0.00 | 0.00 | 87 | 1018.4 |
| 20260904070227 | 75 | 248 | 0.0 | 0.0 | 0.00 | 0.00 | 0.00 | 87 | 1018.6 |
| 20260904065257 | 75 | 248 | 0.0 | 0.0 | 0.00 | 0.00 | 0.00 | 87 | 1018.5 |
| 20260904064257 | 75 | 248 | 0.0 | 0.0 | 0.00 | 0.00 | 0.00 | 88 | 1018.5 |
| 20260904062257 | 75 | 248 | 0.0 | 0.0 | 0.00 | 0.00 | 0.00 | 87 | 1018.6 |
| 20260904060257 | 76 | 248 | 0.0 | 0.0 | 0.00 | 0.00 | 0.00 | 83 | 1019.1 |
| 20260904054257 | 77 | 168 | 0.0 | 0.0 | 0.00 | 0.00 | 0.00 | 81 | 1018.8 |
| 20260904052226 | 77 | 114 | 0.0 | 0.0 | 0.00 | 0.00 | 0.00 | 84 | 1018.8 |
| 20260904051257 | 76 | 155 | 0.0 | 0.0 | 0.00 | 0.00 | 0.00 | 87 | 1018.8 |
| 20260904050256 | 76 | 227 | 0.0 | 0.0 | 0.00 | 0.00 | 0.00 | 86 | 1018.9 |
| 20260904045226 | 76 | 227 | 0.0 | 0.0 | 0.00 | 0.00 | 0.00 | 85 | 1019.0 |
| 20260904044256 | 76 | 227 | 0.0 | 0.0 | 0.00 | 0.00 | 0.00 | 85 | 1018.7 |
| 20260904043256 | 77 | 227 | 0.0 | 0.0 | 0.00 | 0.00 | 0.00 | 84 | 1018.9 |
| 20260904042256 | 77 | 227 | 0.0 | 0.0 | 0.00 | 0.00 | 0.00 | 84 | 1018.7 |
| 20260904041256 | 77 | 227 | 0.0 | 0.0 | 0.00 | 0.00 | 0.00 | 84 | 1018.8 |
| 20260904035256 | 78 | 227 | 0.0 | 0.0 | 0.00 | 0.00 | 0.00 | 82 | 1018.9 |
| 20260904034256 | 78 | 227 | 0.0 | 0.0 | 0.00 | 0.00 | 0.00 | 81 | 1018.9 |
| 20260904033256 | 78 | 227 | 0.0 | 0.0 | 0.00 | 0.00 | 0.00 | 81 | 1019.1 |
| 20260904032255 | 79 | 227 | 0.0 | 0.0 | 0.00 | 0.00 | 0.00 | 80 | 1019.0 |
| 20260904025256 | 79 | 227 | 0.0 | 0.0 | 0.00 | 0.00 | 0.00 | 78 | 1018.8 |
| 20260904023255 | 81 | 227 | 0.0 | 0.0 | 0.00 | 0.00 | 0.00 | 75 | 1019.0 |
| 20260904022256 | 82 | 227 | 0.0 | 0.0 | 0.00 | 0.00 | 0.00 | 72 | 1019.0 |
| 20260904020255 | 83 | 227 | 0.0 | 0.0 | 0.00 | 0.00 | 0.00 | 69 | 1018.9 |
| 20260904015255 | 83 | 189 | 0.0 | 2.0 | 0.00 | 0.00 | 0.00 | 69 | 1018.6 |
| 20260904013255 | 83 | 180 | 0.0 | 2.0 | 0.00 | 0.00 | 0.00 | 70 | 1018.4 |
| 20260904012255 | 83 | 190 | 0.0 | 0.0 | 0.00 | 0.00 | 0.00 | 70 | 1018.5 |
| 20260904011254 | 83 | 190 | 0.0 | 0.0 | 0.00 | 0.00 | 0.00 | 70 | 1018.3 |
| 20260904010254 | 84 | 190 | 0.0 | 0.0 | 0.00 | 0.00 | 0.00 | 68 | 1018.3 |
| 20260904005255 | 84 | 190 | 0.0 | 0.0 | 0.00 | 0.00 | 0.00 | 67 | 1017.8 |
| 20260904003254 | 85 | 190 | 0.0 | 0.0 | 0.00 | 0.00 | 0.00 | 65 | 1017.8 |
| 20260904002255 | 86 | 190 | 0.0 | 2.0 | 0.00 | 0.00 | 0.00 | 62 | 1017.7 |
| 20260904001254 | 87 | 125 | 0.0 | 0.0 | 0.00 | 0.00 | 0.00 | 60 | 1017.5 |
| 20260904000255 | 89 | 125 | 0.0 | 0.0 | 0.00 | 0.00 | 0.00 | 56 | 1017.4 |
| 20260903235254 | 90 | 125 | 0.0 | 4.0 | 0.00 | 0.00 | 0.00 | 53 | 1017.2 |
| 20260903234254 | 91 | 136 | 0.0 | 3.0 | 0.00 | 0.00 | 0.00 | 52 | 1016.9 |
| 20260903233254 | 91 | 143 | 2.0 | 4.0 | 0.00 | 0.00 | 0.00 | 50 | 1016.9 |
| 20260903231254 | 93 | 121 | 3.0 | 7.0 | 0.00 | 0.00 | 0.00 | 49 | 1016.9 |
| 20260903225254 | 93 | 360 | 7.0 | 7.0 | 0.00 | 0.00 | 0.00 | 48 | 1016.7 |
| 20260903224254 | 94 | 132 | 3.0 | 5.0 | 0.00 | 0.00 | 0.00 | 48 | 1016.6 |